Location: Härggis
(46.9540°N, 8.4897°E)
Time: 22:21:51
(UTC+00:00)

Helios 1A - Pass Details

Date: 27 May 2022
Orbit: 582 x 600 km, 98.2° (Epoch: 29 June)

Event Time Altitude Azimuth Distance (km) Brightness Sun altitude
Exits shadow 01:25:54 10° 150° (SSE) 1,916 5.3 -16.4°
Maximum altitude 01:29:58 57° 72° (ENE) 709 3.6 -16.0°
Drops below altitude 10° 01:34:07 10° 354° (N) 1,951 6.4 -15.7°
Sets 01:36:19 0° 350° (N) 2,860 7.3 -15.5°
